QPF
0.00 0.00 0.00 0.00 0.00 0.00 0.00 0.00 0.00 0.00 0.00 0.00 0.00 0.00 0.00 0.00 0.00 0.00 0.00 0.00 0.00 0.00 0.00 0.00 0.01 0.00 0.01 0.01 0.00 0.00 0.00 0.00 0.00 0.00 0.00 0.00 0.00 0.00 0.00 0.00 0.00 0.00 0.00 0.00 0.00 0.00 0.00 0.00 0.00
0.00 0.00 0.00 0.00 0.00 0.00 0.00 0.00 0.00 0.00 0.00 0.00 0.00 0.00 0.00 0.00 0.00 0.00 0.00 0.00 0.00 0.00 0.00 0.00 0.00 0.00 0.01 0.01 0.01 0.00 0.00 0.00 0.00 0.00 0.00 0.00 0.00 0.00 0.00 0.00 0.00 0.00 0.00 0.00 0.00 0.00 0.00 0.00 0.00
0.00 0.00 0.00 0.00 0.00 0.00 0.00 0.00 0.00 0.00 0.00 0.00 0.00 0.00 0.00 0.00 0.00 0.00 0.00 0.00 0.00 0.00 0.00 0.00 0.00 0.00 0.01 0.02 0.01 0.00 0.00 0.00 0.00 0.00 0.00 0.01 0.01 0.00 0.00 0.00 0.00 0.00 0.00 0.00 0.00 0.00 0.00 0.00 0.00
0.00 0.00 0.00 0.00 0.00 0.00 0.00 0.00 0.00 0.00 0.00 0.00 0.00 0.00 0.00 0.00 0.00 0.00 0.00 0.00 0.00 0.00 0.00 0.00 0.00 0.01 0.01 0.00 0.00 0.00 0.00 0.00 0.00 0.00 0.00 0.01 0.01 0.00 0.00 0.00 0.00 0.00 0.00 0.00 0.00 0.00 0.00 0.00 0.00
0.00 0.00 0.00 0.00 0.00 0.00 0.00 0.00 0.00 0.00 0.00 0.00 0.00 0.00 0.00 0.00 0.00 0.00 0.00 0.00 0.00 0.00 0.00 0.00 0.00 0.01 0.00 0.00 0.00 0.00 0.00 0.00 0.00 0.00 0.00 0.00 0.01 0.01 0.00 0.00 0.00 0.00 0.00 0.00 0.00 0.00 0.00 0.00 0.00
0.00 0.00 0.00 0.00 0.00 0.00 0.00 0.00 0.00 0.00 0.00 0.00 0.00 0.00 0.00 0.00 0.00 0.00 0.00 0.00 0.00 0.00 0.00 0.00 0.00 0.01 0.00 0.00 0.00 0.00 0.00 0.00 0.00 0.00 0.00 0.01 0.01 0.01 0.00 0.00 0.00 0.00 0.00 0.00 0.00 0.00 0.00 0.00 0.00
0.00 0.00 0.00 0.00 0.00 0.00 0.00 0.00 0.00 0.00 0.00 0.00 0.00 0.00 0.00 0.00 0.00 0.00 0.00 0.00 0.00 0.00 0.00 0.00 0.00 0.00 0.00 0.00 0.00 0.00 0.00 0.00 0.00 0.00 0.00 0.00 0.00 0.00 0.00 0.00 0.00 0.00 0.00 0.00 0.00 0.01 0.00 0.00 0.00
0.00 0.00 0.00 0.00 0.00 0.00 0.00 0.00 0.00 0.00 0.00 0.00 0.00 0.00 0.00 0.00 0.00 0.00 0.00 0.00 0.00 0.00 0.00 0.00 0.00 0.00 0.00 0.00 0.00 0.00 0.00 0.00 0.00 0.00 0.00 0.00 0.00 0.00 0.00 0.00 0.00 0.00 0.00 0.00 0.00 0.01 0.01 0.00 0.00
0.00 0.00 0.00 0.00 0.00 0.00 0.00 0.00 0.00 0.00 0.00 0.00 0.00 0.00 0.00 0.00 0.00 0.00 0.00 0.00 0.00 0.00 0.00 0.00 0.00 0.00 0.00 0.00 0.00 0.00 0.00 0.00 0.00 0.00 0.00 0.00 0.00 0.00 0.00 0.00 0.00 0.00 0.00 0.00 0.00 0.00 0.00 0.00 0.00
0.00 0.00 0.00 0.00 0.00 0.00 0.00 0.00 0.00 0.00 0.00 0.00 0.00 0.00 0.00 0.00 0.00 0.00 0.00 0.00 0.00 0.00 0.00 0.00 0.00 0.00 0.00 0.00 0.00 0.00 0.00 0.00 0.00 0.00 0.00 0.00 0.00 0.00 0.00 0.00 0.00 0.00 0.00 0.00 0.00 0.00 0.00 0.00 0.00
0.00 0.00 0.00 0.00 0.00 0.00 0.00 0.00 0.00 0.00 0.00 0.00 0.00 0.00 0.00 0.00 0.00 0.00 0.00 0.00 0.00 0.00 0.00 0.00 0.00 0.00 0.00 0.00 0.00 0.00 0.00 0.00 0.00 0.00 0.00 0.00 0.00 0.00 0.00 0.00 0.00 0.00 0.00 0.00 0.00 0.00 0.00 0.00 0.00
0.00 0.00 0.00 0.00 0.00 0.00 0.00 0.00 0.00 0.00 0.00 0.00 0.00 0.00 0.00 0.00 0.00 0.00 0.00 0.00 0.00 0.00 0.00 0.00 0.00 0.00 0.00 0.00 0.00 0.00 0.00 0.00 0.00 0.00 0.00 0.00 0.00 0.00 0.00 0.00 0.00 0.00 0.00 0.00 0.00 0.00 0.00 0.00 0.00
0.00 0.00 0.00 0.00 0.00 0.00 0.00 0.00 0.00 0.00 0.00 0.00 0.00 0.00 0.00 0.00 0.00 0.00 0.00 0.00 0.00 0.00 0.00 0.00 0.00 0.00 0.00 0.00 0.00 0.00 0.00 0.00 0.00 0.00 0.00 0.00 0.00 0.00 0.00 0.00 0.00 0.00 0.00 0.00 0.00 0.00 0.00 0.00 0.00
0.00 0.00 0.00 0.00 0.00 0.00 0.00 0.00 0.00 0.00 0.00 0.00 0.00 0.00 0.00 0.00 0.00 0.00 0.00 0.00 0.00 0.00 0.00 0.00 0.00 0.00 0.00 0.00 0.00 0.00 0.00 0.00 0.00 0.00 0.00 0.00 0.00 0.00 0.00 0.00 0.00 0.00 0.00 0.00 0.00 0.00 0.00 0.00 0.00
0.00 0.00 0.00 0.00 0.00 0.00 0.00 0.00 0.00 0.00 0.00 0.00 0.00 0.00 0.00 0.00 0.00 0.00 0.00 0.00 0.00 0.00 0.00 0.00 0.00 0.00 0.00 0.00 0.00 0.00 0.00 0.00 0.00 0.00 0.00 0.00 0.00 0.00 0.00 0.00 0.00 0.00 0.00 0.00 0.00 0.00 0.00 0.00 0.00
0.00 0.00 0.00 0.00 0.00 0.00 0.00 0.00 0.00 0.00 0.00 0.00 0.00 0.00 0.00 0.00 0.00 0.00 0.00 0.00 0.00 0.00 0.00 0.00 0.00 0.00 0.00 0.00 0.00 0.00 0.00 0.00 0.00 0.00 0.00 0.00 0.00 0.00 0.00 0.00 0.00 0.00 0.00 0.00 0.00 0.00 0.00 0.00 0.00
0.00 0.00 0.00 0.00 0.00 0.00 0.00 0.00 0.00 0.00 0.00 0.00 0.00 0.00 0.00 0.00 0.00 0.00 0.00 0.00 0.00 0.00 0.00 0.00 0.00 0.00 0.00 0.00 0.00 0.00 0.00 0.00 0.00 0.00 0.00 0.00 0.00 0.00 0.00 0.00 0.00 0.00 0.00 0.00 0.00 0.00 0.00 0.00 0.00
0.00 0.00 0.00 0.00 0.00 0.00 0.00 0.00 0.00 0.00 0.00 0.00 0.00 0.00 0.00 0.00 0.00 0.00 0.00 0.00 0.00 0.00 0.00 0.00 0.00 0.00 0.00 0.00 0.00 0.00 0.00 0.00 0.00 0.00 0.00 0.00 0.00 0.00 0.00 0.00 0.00 0.00 0.00 0.00 0.00 0.00 0.00 0.00 0.00
0.00 0.00 0.00 0.00 0.00 0.00 0.00 0.00 0.00 0.00 0.00 0.00 0.00 0.00 0.00 0.00 0.00 0.00 0.00 0.00 0.00 0.00 0.00 0.00 0.00 0.00 0.00 0.00 0.00 0.00 0.00 0.00 0.00 0.00 0.00 0.00 0.00 0.00 0.00 0.00 0.00 0.00 0.00 0.00 0.00 0.00 0.00 0.00 0.00
0.00 0.00 0.00 0.00 0.00 0.00 0.00 0.00 0.00 0.00 0.00 0.00 0.00 0.00 0.00 0.00 0.00 0.00 0.00 0.00 0.00 0.00 0.00 0.00 0.00 0.00 0.00 0.00 0.00 0.00 0.00 0.00 0.00 0.00 0.00 0.00 0.00 0.00 0.00 0.00 0.00 0.00 0.00 0.00 0.00 0.00 0.00 0.00 0.00
0.00 0.00 0.00 0.00 0.00 0.00 0.00 0.00 0.00 0.00 0.00 0.00 0.00 0.00 0.00 0.00 0.00 0.00 0.00 0.00 0.00 0.00 0.00 0.00 0.00 0.00 0.00 0.00 0.00 0.00 0.00 0.00 0.00 0.00 0.00 0.00 0.00 0.00 0.00 0.00 0.00 0.00 0.00 0.00 0.00 0.00 0.00 0.00 0.00
0.00 0.00 0.00 0.00 0.00 0.00 0.00 0.00 0.00 0.00 0.00 0.00 0.00 0.00 0.00 0.00 0.00 0.00 0.00 0.00 0.00 0.00 0.00 0.00 0.00 0.00 0.00 0.00 0.00 0.00 0.00 0.00 0.00 0.00 0.00 0.00 0.00 0.00 0.00 0.00 0.00 0.00 0.00 0.00 0.00 0.00 0.00 0.00 0.00
0.00 0.00 0.00 0.00 0.00 0.00 0.00 0.00 0.00 0.00 0.00 0.00 0.00 0.00 0.00 0.00 0.00 0.00 0.00 0.00 0.00 0.00 0.00 0.00 0.00 0.00 0.00 0.00 0.00 0.00 0.00 0.00 0.00 0.00 0.00 0.00 0.00 0.00 0.00 0.00 0.00 0.00 0.00 0.00 0.00 0.00 0.00 0.00 0.00
0.00 0.00 0.00 0.00 0.00 0.00 0.00 0.00 0.00 0.00 0.00 0.00 0.00 0.00 0.00 0.00 0.00 0.00 0.00 0.00 0.00 0.00 0.00 0.00 0.00 0.00 0.00 0.00 0.00 0.00 0.00 0.00 0.00 0.00 0.00 0.00 0.00 0.00 0.00 0.00 0.00 0.00 0.00 0.00 0.00 0.00 0.00 0.00 0.00
0.00 0.00 0.00 0.00 0.00 0.00 0.00 0.00 0.00 0.00 0.00 0.00 0.00 0.00 0.00 0.00 0.00 0.00 0.00 0.00 0.00 0.00 0.00 0.00 0.00 0.00 0.00 0.00 0.00 0.00 0.00 0.00 0.00 0.00 0.00 0.00 0.00 0.00 0.00 0.00 0.00 0.00 0.00 0.00 0.00 0.00 0.00 0.00 0.00
0.00 0.00 0.00 0.00 0.00 0.00 0.00 0.00 0.00 0.00 0.00 0.00 0.00 0.00 0.00 0.00 0.00 0.00 0.00 0.00 0.00 0.00 0.00 0.00 0.00 0.00 0.00 0.00 0.00 0.00 0.00 0.00 0.00 0.00 0.00 0.00 0.00 0.00 0.00 0.00 0.00 0.00 0.00 0.00 0.00 0.00 0.00 0.00 0.00
0.00 0.00 0.00 0.00 0.00 0.00 0.00 0.00 0.00 0.00 0.00 0.00 0.00 0.00 0.00 0.00 0.00 0.00 0.00 0.00 0.00 0.00 0.00 0.00 0.00 0.00 0.00 0.00 0.00 0.00 0.00 0.00 0.00 0.00 0.00 0.00 0.00 0.00 0.00 0.00 0.00 0.00 0.00 0.00 0.00 0.00 0.00 0.00 0.00
0.00 0.00 0.00 0.00 0.00 0.00 0.00 0.00 0.00 0.00 0.00 0.00 0.00 0.00 0.00 0.00 0.00 0.00 0.00 0.00 0.00 0.00 0.00 0.00 0.00 0.00 0.00 0.00 0.00 0.00 0.00 0.00 0.00 0.00 0.00 0.00 0.00 0.00 0.00 0.00 0.00 0.00 0.00 0.00 0.00 0.00 0.00 0.00 0.00
0.00 0.00 0.00 0.00 0.00 0.00 0.00 0.00 0.00 0.00 0.00 0.00 0.00 0.00 0.00 0.00 0.00 0.00 0.00 0.00 0.00 0.00 0.00 0.00 0.00 0.00 0.00 0.00 0.00 0.00 0.00 0.00 0.00 0.00 0.00 0.00 0.00 0.00 0.00 0.00 0.00 0.00 0.00 0.00 0.00 0.00 0.00 0.00 0.00
0.00 0.00 0.00 0.00 0.00 0.00 0.00 0.00 0.00 0.00 0.00 0.00 0.00 0.00 0.00 0.00 0.00 0.00 0.00 0.00 0.00 0.00 0.00 0.00 0.00 0.00 0.00 0.00 0.00 0.00 0.00 0.00 0.00 0.00 0.00 0.00 0.00 0.00 0.00 0.00 0.00 0.00 0.00 0.00 0.00 0.00 0.00 0.00 0.00
MSLP
1014.12 1014.14 1014.10 1014.29 1015.32 1015.31 1014.74 1014.07 1013.42 1012.84 1012.30 1011.79 1011.57 1011.43 1011.12 1010.87 1010.82 1011.31 1011.39 1011.66 1011.91 1011.90 1012.27 1012.54 1012.74 1013.05 1013.29 1013.67 1014.03 1014.26 1014.44 1014.60 1014.65 1014.64 1014.54 1014.66 1014.72 1014.95 1014.99 1015.19 1015.18 1015.29 1015.38 1015.52 1015.32 1015.26 1015.31 1015.39 1015.50
1014.24 1014.12 1014.48 1015.18 1015.67 1015.50 1014.91 1014.10 1013.62 1013.00 1012.44 1011.84 1011.37 1011.17 1011.11 1010.60 1010.75 1010.86 1011.26 1011.53 1011.91 1011.86 1012.21 1012.53 1012.76 1013.07 1013.30 1013.49 1013.86 1014.23 1014.47 1014.64 1014.67 1014.68 1014.52 1014.54 1014.62 1014.71 1014.92 1015.13 1015.24 1015.42 1015.52 1015.71 1015.70 1015.71 1015.51 1015.59 1015.63
1014.34 1014.47 1015.45 1016.02 1016.38 1015.73 1014.95 1014.16 1013.76 1012.89 1012.27 1012.02 1011.29 1010.98 1010.84 1010.49 1010.63 1010.85 1011.15 1011.59 1011.98 1012.10 1012.23 1012.62 1012.78 1013.05 1013.22 1013.44 1013.69 1014.14 1014.41 1014.57 1014.69 1014.71 1014.66 1014.67 1014.66 1014.66 1014.76 1015.15 1015.26 1015.42 1015.60 1015.78 1015.88 1015.92 1015.94 1015.84 1015.83
1014.73 1015.31 1016.62 1016.36 1016.40 1015.68 1015.11 1014.28 1013.90 1013.10 1012.05 1011.86 1011.43 1011.03 1010.88 1010.51 1010.69 1011.05 1011.36 1011.74 1012.05 1012.22 1012.38 1012.71 1012.81 1013.03 1013.24 1013.54 1013.81 1014.09 1014.36 1014.52 1014.67 1014.71 1014.70 1014.68 1014.67 1014.68 1014.81 1015.10 1015.31 1015.50 1015.69 1015.81 1015.90 1015.92 1015.88 1015.93 1015.94
1015.59 1016.33 1016.82 1016.97 1016.56 1015.82 1015.06 1014.44 1014.02 1013.48 1012.78 1011.98 1011.49 1010.95 1010.75 1010.65 1011.03 1011.25 1011.55 1011.85 1011.90 1012.19 1012.39 1012.78 1012.93 1013.04 1013.27 1013.50 1013.74 1013.93 1014.26 1014.45 1014.60 1014.69 1014.65 1014.54 1014.58 1014.60 1014.56 1015.02 1015.29 1015.52 1015.60 1015.73 1015.86 1015.86 1015.84 1015.84 1015.86
1016.19 1016.93 1017.26 1017.25 1016.68 1015.84 1015.07 1014.51 1014.07 1013.54 1012.84 1012.20 1011.85 1011.30 1010.68 1011.04 1011.19 1011.44 1011.92 1012.12 1012.12 1012.12 1012.15 1012.60 1012.89 1013.02 1013.22 1013.47 1013.72 1013.98 1014.18 1014.38 1014.57 1014.66 1014.58 1014.27 1014.37 1014.57 1014.50 1014.84 1015.27 1015.45 1015.51 1015.57 1015.71 1015.74 1015.69 1015.68 1015.67
1016.36 1016.96 1017.26 1017.13 1016.68 1015.94 1014.91 1014.45 1014.09 1013.47 1012.88 1012.17 1011.86 1011.47 1010.86 1011.03 1011.50 1011.74 1012.09 1012.42 1012.40 1012.44 1012.17 1012.41 1012.71 1012.99 1013.22 1013.49 1013.64 1013.92 1014.11 1014.29 1014.48 1014.59 1014.65 1014.54 1014.46 1014.68 1014.77 1014.97 1015.23 1015.40 1015.47 1015.41 1015.43 1015.46 1015.40 1015.46 1015.33
1016.58 1016.88 1017.19 1017.09 1016.63 1015.68 1014.76 1014.34 1013.92 1013.49 1012.65 1012.14 1011.79 1011.56 1011.20 1011.20 1011.58 1011.89 1012.27 1012.64 1012.73 1012.77 1012.58 1012.46 1012.65 1012.89 1013.05 1013.33 1013.60 1013.82 1014.00 1014.19 1014.39 1014.52 1014.63 1014.67 1014.69 1014.83 1015.00 1015.06 1015.27 1015.33 1015.32 1015.27 1015.20 1015.19 1015.14 1015.15 1015.06
1016.57 1017.04 1016.93 1016.71 1016.43 1015.27 1014.64 1014.35 1013.77 1013.22 1012.97 1012.46 1011.87 1011.66 1011.36 1011.53 1011.72 1012.02 1012.31 1012.60 1013.00 1013.16 1012.83 1012.66 1012.64 1012.75 1012.88 1013.19 1013.43 1013.66 1013.84 1014.01 1014.23 1014.42 1014.58 1014.67 1014.71 1014.82 1015.04 1015.16 1015.27 1015.32 1015.27 1015.21 1015.14 1014.94 1014.93 1014.90 1014.88
1016.52 1016.81 1016.26 1015.72 1015.53 1015.08 1014.54 1014.35 1013.78 1013.39 1012.93 1012.28 1011.83 1011.40 1011.33 1011.54 1011.73 1011.90 1012.04 1012.28 1012.68 1012.99 1012.79 1012.68 1012.71 1012.65 1012.79 1013.03 1013.19 1013.38 1013.68 1013.85 1014.03 1014.24 1014.45 1014.52 1014.65 1014.74 1014.89 1015.01 1015.09 1015.15 1015.14 1015.09 1014.97 1014.80 1014.72 1014.68 1014.52
1016.24 1016.01 1015.65 1015.16 1014.99 1014.92 1014.64 1014.27 1013.71 1013.33 1012.50 1012.11 1011.75 1011.20 1011.17 1011.37 1011.61 1011.75 1012.04 1012.08 1012.10 1012.37 1012.51 1012.33 1012.46 1012.51 1012.65 1012.79 1012.98 1013.22 1013.56 1013.72 1013.91 1014.10 1014.33 1014.43 1014.55 1014.61 1014.74 1014.86 1014.90 1014.97 1014.95 1014.76 1014.62 1014.48 1014.33 1014.21 1014.09
1015.98 1015.60 1015.17 1014.77 1014.65 1014.73 1014.52 1014.14 1013.68 1013.16 1011.98 1011.50 1011.57 1011.58 1011.47 1011.16 1011.13 1011.38 1011.56 1011.61 1011.81 1011.92 1011.91 1011.97 1012.08 1012.25 1012.43 1012.60 1012.71 1012.86 1013.27 1013.48 1013.65 1013.85 1014.11 1014.34 1014.40 1014.55 1014.68 1014.67 1014.70 1014.74 1014.49 1014.38 1014.24 1014.05 1013.89 1013.82 1013.70
1015.62 1015.25 1014.83 1014.61 1014.57 1014.53 1014.35 1013.82 1013.53 1012.64 1011.63 1011.31 1011.34 1011.44 1011.44 1011.26 1011.17 1011.28 1011.32 1011.45 1011.57 1011.48 1011.54 1011.67 1011.74 1011.81 1012.06 1012.38 1012.35 1012.60 1012.91 1013.10 1013.28 1013.51 1013.81 1014.07 1014.28 1014.39 1014.34 1014.28 1014.26 1014.19 1014.16 1014.04 1013.82 1013.71 1013.52 1013.31 1013.13
1014.73 1014.74 1014.52 1014.42 1014.23 1014.17 1014.03 1013.27 1013.19 1011.06 1011.12 1010.94 1011.25 1011.42 1011.57 1011.37 1011.37 1011.40 1011.45 1011.40 1011.36 1011.35 1011.31 1011.25 1011.19 1011.33 1011.50 1011.83 1011.97 1012.24 1012.51 1012.65 1013.05 1013.29 1013.57 1013.92 1014.06 1014.06 1014.05 1013.92 1013.81 1013.77 1013.81 1013.60 1013.52 1013.30 1013.12 1012.81 1012.66
1014.49 1014.75 1014.53 1014.14 1013.86 1013.67 1013.49 1012.90 1012.32 1010.74 1010.89 1010.94 1011.36 1011.82 1011.88 1012.01 1011.98 1011.97 1011.96 1011.71 1011.65 1011.45 1011.30 1010.92 1010.67 1010.79 1011.04 1011.33 1011.62 1011.96 1012.17 1012.50 1012.75 1013.03 1013.44 1013.71 1013.88 1013.84 1013.78 1013.68 1013.56 1013.43 1013.35 1013.32 1013.15 1012.86 1012.68 1012.35 1012.00
1014.42 1014.77 1014.54 1013.79 1013.62 1013.25 1013.27 1011.85 1011.52 1011.15 1011.10 1011.33 1011.64 1012.04 1012.31 1012.63 1012.74 1012.61 1012.36 1012.03 1011.83 1011.68 1011.21 1010.64 1010.35 1010.45 1010.81 1011.13 1011.45 1011.91 1012.18 1012.41 1012.70 1013.12 1013.41 1013.55 1013.59 1013.61 1013.55 1013.43 1013.12 1012.88 1012.96 1012.88 1012.66 1012.47 1012.10 1011.70 1011.51
1014.13 1014.16 1014.16 1013.95 1013.10 1013.32 1013.14 1011.87 1011.39 1011.29 1011.24 1011.52 1011.84 1012.14 1012.53 1012.97 1013.10 1013.03 1012.69 1012.45 1012.12 1011.80 1011.37 1010.85 1010.63 1010.55 1010.79 1011.29 1011.58 1012.04 1012.24 1012.47 1012.75 1013.05 1013.15 1013.21 1013.25 1013.27 1013.25 1013.12 1012.81 1012.79 1012.72 1012.55 1012.45 1012.11 1011.92 1011.31 1010.85
1013.56 1013.79 1013.87 1013.63 1013.43 1013.33 1013.05 1012.29 1011.47 1011.15 1011.18 1011.26 1011.68 1012.49 1012.81 1013.32 1013.73 1013.52 1013.07 1012.80 1012.44 1012.06 1011.69 1011.25 1010.95 1010.88 1011.17 1011.32 1011.68 1012.06 1012.26 1012.59 1012.79 1012.94 1013.06 1013.22 1013.20 1013.19 1013.19 1013.11 1013.03 1012.75 1012.61 1012.43 1012.25 1011.99 1011.66 1011.31 1010.71
1013.16 1013.27 1013.53 1013.40 1013.35 1013.31 1012.78 1012.24 1011.24 1010.67 1010.96 1011.40 1011.97 1012.64 1013.06 1013.43 1014.05 1013.99 1013.52 1013.15 1012.73 1012.27 1012.01 1011.86 1011.53 1011.79 1011.57 1011.52 1011.78 1012.18 1012.66 1013.03 1013.25 1013.42 1013.52 1013.49 1013.55 1013.53 1013.51 1013.47 1013.28 1013.05 1012.88 1012.73 1012.46 1012.05 1011.51 1010.93 1010.47
1013.04 1013.29 1013.58 1013.57 1013.41 1013.46 1012.76 1011.75 1010.62 1010.52 1010.71 1011.02 1011.72 1012.70 1013.09 1013.55 1014.09 1014.21 1013.98 1013.66 1013.42 1013.32 1012.88 1012.35 1012.26 1012.45 1012.16 1012.01 1012.46 1012.85 1013.29 1013.89 1014.12 1014.29 1014.36 1014.35 1014.29 1014.31 1014.18 1014.13 1013.92 1013.69 1013.32 1013.01 1012.68 1012.25 1011.75 1011.13 1010.58
1012.99 1013.16 1013.45 1013.66 1013.62 1013.42 1013.01 1011.62 1010.82 1010.59 1010.94 1011.37 1012.03 1012.43 1013.08 1013.33 1014.06 1014.50 1014.31 1014.15 1014.40 1014.14 1013.63 1013.34 1013.17 1013.04 1013.04 1013.02 1013.14 1013.45 1013.85 1014.33 1014.57 1014.89 1014.96 1015.12 1015.03 1014.95 1014.81 1014.68 1014.46 1014.16 1013.81 1013.48 1013.12 1012.67 1012.24 1011.62 1010.94
1012.92 1013.08 1013.14 1013.64 1014.09 1014.10 1013.58 1012.81 1011.48 1010.75 1011.15 1011.78 1012.48 1012.82 1013.11 1013.60 1014.22 1014.45 1014.44 1014.72 1014.90 1014.95 1014.70 1014.24 1013.97 1013.76 1013.98 1014.08 1014.23 1014.49 1014.88 1015.27 1015.96 1015.90 1015.81 1015.58 1015.46 1015.36 1015.29 1015.13 1014.87 1014.51 1014.14 1013.75 1013.37 1012.92 1012.63 1012.17 1011.43
1012.91 1012.94 1013.54 1013.99 1014.30 1014.42 1014.07 1013.81 1011.23 1011.08 1011.20 1011.77 1012.46 1013.16 1013.48 1013.73 1014.10 1014.57 1014.87 1015.25 1015.39 1015.39 1015.31 1015.16 1014.93 1014.91 1015.03 1015.18 1015.38 1015.49 1015.81 1016.19 1016.38 1016.26 1016.04 1015.95 1015.84 1015.76 1015.68 1015.37 1015.03 1014.70 1014.36 1014.02 1013.64 1013.14 1012.75 1012.42 1011.94
1012.70 1013.30 1014.17 1014.43 1014.79 1014.53 1013.64 1013.50 1011.40 1010.90 1010.63 1011.35 1012.27 1013.16 1013.61 1013.85 1014.33 1014.93 1015.39 1015.64 1015.77 1015.87 1015.81 1015.85 1015.82 1016.19 1016.14 1015.97 1016.22 1016.24 1016.39 1016.62 1016.53 1016.51 1016.34 1016.27 1016.13 1015.95 1015.75 1015.48 1015.16 1014.84 1014.54 1014.17 1013.78 1013.38 1012.94 1012.50 1011.98
1012.36 1013.41 1014.75 1015.61 1015.66 1014.27 1013.63 1013.56 1010.88 1010.19 1010.37 1010.59 1011.39 1012.55 1013.37 1013.69 1014.28 1015.07 1015.51 1015.90 1016.07 1016.25 1016.43 1016.44 1016.40 1016.68 1016.79 1016.80 1016.89 1017.09 1017.16 1017.13 1017.12 1017.08 1016.96 1016.69 1016.40 1016.16 1015.97 1015.71 1015.33 1015.04 1014.79 1014.42 1013.99 1013.49 1012.96 1012.50 1012.03
1012.36 1012.78 1013.68 1014.03 1014.48 1014.11 1013.84 1012.56 1010.17 1009.76 1010.13 1010.47 1011.09 1012.19 1013.16 1013.71 1014.41 1015.03 1015.60 1016.07 1016.43 1016.68 1016.84 1016.87 1017.10 1017.23 1017.22 1017.24 1017.52 1017.73 1017.69 1017.68 1017.70 1017.70 1017.59 1017.42 1017.15 1016.81 1016.54 1016.14 1015.72 1015.28 1014.89 1014.47 1014.03 1013.53 1013.01 1012.49 1012.04
1012.83 1012.73 1012.93 1013.64 1014.25 1014.06 1012.76 1011.30 1009.89 1009.98 1010.46 1010.78 1011.32 1012.28 1013.05 1013.73 1014.43 1015.09 1015.79 1016.23 1016.75 1017.12 1017.24 1017.36 1017.54 1017.60 1017.68 1017.82 1017.97 1018.11 1018.15 1018.09 1018.07 1017.99 1017.80 1017.63 1017.47 1017.15 1016.77 1016.36 1015.92 1015.53 1015.14 1014.71 1014.20 1013.56 1012.91 1012.41 1011.80
1011.16 1011.90 1013.39 1013.53 1013.75 1013.64 1012.66 1011.76 1010.59 1010.32 1010.76 1011.28 1011.83 1012.30 1013.13 1013.81 1014.54 1015.22 1016.03 1016.65 1017.15 1017.48 1017.61 1017.83 1017.90 1017.83 1018.07 1018.26 1018.33 1018.47 1018.43 1018.40 1018.34 1018.18 1018.02 1017.83 1017.63 1017.43 1017.19 1016.68 1016.26 1015.76 1015.21 1014.70 1014.14 1013.48 1012.85 1012.22 1011.79
1011.52 1012.09 1012.87 1013.06 1013.08 1013.06 1012.86 1011.28 1010.45 1010.54 1010.80 1011.13 1011.63 1012.23 1013.02 1013.66 1014.52 1015.30 1016.16 1016.91 1017.32 1017.55 1017.91 1018.13 1018.19 1018.28 1018.40 1018.60 1018.71 1018.73 1018.79 1018.72 1018.55 1018.35 1018.22 1018.08 1017.92 1017.72 1017.36 1016.83 1016.23 1015.65 1015.10 1014.53 1013.97 1013.37 1012.63 1012.18 1011.57
1010.40 1011.17 1012.06 1012.22 1013.25 1013.29 1012.92 1011.20 1010.41 1010.51 1010.56 1010.70 1011.43 1012.17 1012.86 1013.67 1014.60 1015.33 1016.19 1017.00 1017.45 1017.80 1018.16 1018.27 1018.47 1018.70 1018.81 1018.92 1018.98 1019.00 1018.89 1018.70 1018.56 1018.59 1018.53 1018.34 1018.03 1017.66 1017.29 1016.70 1016.14 1015.64 1015.12 1014.55 1013.91 1013.21 1012.65 1011.99 1011.24
Thickness
5722 5725 5727 5723 5702 5697 5690 5703 5714 5719 5726 5739 5741 5741 5746 5751 5747 5739 5766 5767 5766 5767 5763 5759 5757 5754 5752 5749 5745 5743 5742 5741 5741 5741 5742 5742 5741 5739 5739 5737 5737 5735 5735 5733 5733 5733 5730 5729 5726
5717 5722 5717 5702 5688 5684 5691 5703 5705 5718 5729 5737 5739 5743 5744 5750 5758 5762 5763 5766 5764 5765 5761 5758 5755 5751 5749 5748 5744 5741 5739 5738 5738 5738 5740 5741 5740 5739 5738 5735 5733 5731 5731 5728 5727 5726 5726 5724 5723
5712 5715 5698 5683 5671 5680 5688 5700 5709 5721 5728 5728 5738 5747 5749 5753 5760 5762 5766 5765 5762 5761 5760 5755 5753 5750 5748 5746 5744 5739 5737 5735 5734 5735 5736 5737 5736 5736 5735 5732 5729 5727 5726 5724 5723 5721 5720 5719 5718
5702 5699 5686 5677 5673 5685 5689 5702 5710 5715 5731 5729 5736 5737 5751 5761 5761 5763 5764 5762 5760 5758 5756 5752 5751 5748 5745 5743 5740 5738 5735 5733 5732 5732 5733 5734 5733 5732 5731 5728 5725 5723 5722 5721 5719 5718 5717 5716 5714
5690 5681 5666 5663 5668 5680 5691 5700 5707 5708 5716 5724 5732 5736 5743 5757 5759 5760 5760 5760 5760 5758 5754 5749 5747 5745 5743 5740 5738 5736 5734 5732 5730 5729 5730 5731 5731 5730 5729 5725 5722 5719 5718 5717 5716 5715 5714 5713 5712
5674 5670 5660 5657 5663 5677 5688 5697 5702 5707 5713 5720 5724 5730 5745 5752 5754 5756 5756 5756 5757 5757 5755 5749 5745 5743 5741 5738 5736 5734 5732 5730 5727 5726 5726 5729 5729 5727 5726 5723 5719 5717 5715 5715 5714 5713 5712 5711 5710
5664 5660 5655 5656 5659 5668 5686 5698 5701 5705 5707 5717 5727 5723 5742 5748 5750 5752 5752 5751 5753 5751 5753 5749 5745 5741 5739 5736 5734 5732 5730 5728 5726 5724 5723 5724 5724 5722 5720 5718 5716 5714 5714 5714 5712 5711 5710 5708 5708
5661 5660 5648 5652 5657 5666 5687 5694 5703 5704 5709 5723 5726 5721 5730 5744 5748 5749 5747 5746 5746 5746 5747 5747 5743 5740 5738 5734 5732 5730 5728 5726 5723 5721 5720 5719 5719 5717 5715 5714 5713 5711 5711 5710 5709 5707 5706 5705 5704
5659 5648 5646 5654 5653 5671 5686 5688 5701 5710 5707 5712 5722 5726 5737 5740 5743 5743 5742 5741 5738 5738 5742 5742 5741 5738 5737 5733 5730 5728 5726 5723 5720 5718 5716 5715 5715 5714 5712 5710 5708 5707 5705 5705 5703 5703 5702 5700 5699
5649 5644 5653 5664 5665 5671 5683 5684 5694 5699 5701 5708 5718 5730 5735 5737 5738 5738 5738 5737 5736 5735 5738 5739 5738 5737 5735 5731 5729 5727 5723 5720 5718 5715 5713 5712 5711 5710 5708 5707 5705 5703 5701 5700 5699 5698 5697 5695 5693
5646 5652 5658 5665 5669 5674 5677 5681 5693 5695 5698 5707 5714 5727 5732 5734 5735 5734 5735 5736 5738 5737 5737 5739 5738 5735 5733 5730 5727 5724 5719 5716 5714 5712 5710 5709 5707 5706 5704 5702 5700 5698 5696 5695 5694 5693 5691 5690 5688
5643 5654 5660 5665 5670 5673 5673 5683 5687 5694 5706 5717 5717 5720 5724 5731 5734 5735 5735 5738 5737 5737 5738 5740 5738 5735 5731 5728 5726 5723 5718 5714 5712 5710 5707 5704 5702 5701 5698 5697 5695 5692 5691 5690 5689 5687 5685 5683 5681
5639 5652 5658 5660 5665 5668 5672 5678 5684 5695 5709 5717 5716 5718 5722 5727 5732 5734 5736 5736 5736 5735 5737 5737 5736 5734 5731 5727 5724 5721 5716 5714 5711 5708 5705 5701 5698 5696 5694 5692 5689 5687 5685 5683 5682 5680 5679 5678 5677
5646 5650 5655 5656 5664 5667 5670 5681 5685 5709 5708 5712 5713 5715 5718 5723 5727 5730 5731 5732 5734 5734 5735 5736 5736 5734 5731 5727 5724 5721 5716 5713 5708 5705 5701 5697 5693 5691 5688 5686 5683 5680 5678 5677 5676 5675 5675 5675 5673
5638 5636 5643 5655 5661 5666 5669 5678 5678 5706 5709 5710 5709 5708 5712 5714 5718 5720 5721 5725 5727 5729 5730 5734 5736 5734 5731 5727 5723 5718 5714 5709 5705 5701 5695 5691 5686 5683 5681 5679 5677 5675 5673 5670 5670 5670 5670 5671 5671
5627 5628 5629 5652 5657 5664 5671 5678 5687 5697 5699 5700 5702 5701 5704 5705 5708 5711 5715 5718 5720 5721 5725 5730 5733 5732 5727 5723 5719 5713 5709 5704 5699 5693 5688 5683 5680 5678 5676 5674 5674 5672 5668 5666 5667 5667 5668 5668 5666
5617 5619 5628 5636 5656 5658 5663 5672 5683 5691 5695 5696 5697 5697 5699 5700 5702 5704 5708 5710 5713 5715 5718 5723 5724 5724 5722 5716 5712 5706 5702 5698 5692 5686 5682 5679 5676 5674 5671 5670 5669 5667 5665 5663 5662 5662 5661 5663 5663
5610 5627 5629 5633 5646 5649 5655 5664 5677 5687 5690 5695 5696 5691 5693 5692 5692 5695 5700 5702 5705 5708 5711 5714 5716 5716 5713 5710 5705 5700 5696 5691 5685 5680 5675 5671 5668 5666 5664 5662 5661 5660 5659 5657 5656 5655 5654 5653 5654
5624 5630 5634 5633 5641 5645 5652 5659 5678 5689 5689 5688 5684 5684 5686 5686 5685 5686 5691 5694 5698 5700 5702 5703 5705 5703 5705 5703 5699 5693 5686 5680 5674 5669 5665 5663 5660 5657 5654 5653 5652 5650 5649 5646 5645 5645 5646 5645 5643
5618 5621 5622 5628 5638 5641 5650 5665 5683 5684 5687 5690 5684 5680 5682 5680 5678 5679 5681 5684 5685 5686 5690 5695 5695 5693 5694 5694 5688 5682 5675 5666 5661 5657 5654 5651 5648 5644 5642 5640 5638 5636 5635 5634 5632 5631 5632 5632 5630
5613 5618 5619 5624 5629 5637 5641 5661 5670 5681 5681 5679 5678 5680 5678 5679 5674 5671 5673 5674 5671 5674 5678 5682 5683 5683 5681 5679 5675 5670 5664 5657 5652 5646 5643 5638 5635 5632 5630 5627 5625 5624 5623 5621 5619 5618 5615 5615 5615
5608 5623 5626 5622 5621 5622 5637 5639 5657 5675 5674 5671 5669 5672 5673 5671 5668 5666 5667 5665 5662 5660 5663 5668 5671 5672 5667 5663 5659 5654 5648 5643 5634 5632 5629 5627 5624 5621 5618 5615 5613 5611 5610 5609 5606 5604 5599 5596 5595
5611 5618 5617 5617 5617 5615 5623 5630 5661 5659 5667 5667 5665 5663 5665 5666 5665 5661 5658 5655 5653 5652 5652 5654 5657 5656 5653 5648 5643 5640 5634 5628 5624 5622 5620 5617 5614 5611 5607 5605 5602 5600 5597 5594 5590 5586 5581 5576 5571
5607 5604 5601 5605 5605 5609 5623 5633 5654 5663 5671 5665 5662 5658 5659 5661 5658 5653 5648 5645 5644 5643 5643 5643 5642 5637 5636 5634 5630 5627 5623 5618 5616 5612 5610 5606 5602 5599 5595 5592 5588 5584 5581 5577 5572 5567 5562 5558 5553
5606 5600 5583 5579 5587 5613 5613 5616 5659 5666 5668 5672 5668 5660 5657 5658 5654 5648 5643 5640 5637 5635 5633 5632 5630 5625 5622 5621 5618 5613 5609 5606 5602 5599 5596 5594 5591 5587 5582 5578 5574 5570 5564 5560 5555 5550 5546 5540 5534
5601 5604 5595 5597 5598 5610 5604 5623 5659 5667 5664 5664 5665 5660 5653 5651 5647 5643 5636 5631 5626 5624 5622 5621 5616 5613 5611 5609 5603 5598 5596 5593 5589 5585 5581 5577 5573 5570 5565 5562 5557 5552 5547 5542 5537 5531 5526 5521 5513
5583 5592 5610 5595 5591 5601 5619 5639 5658 5659 5655 5653 5655 5653 5649 5645 5641 5635 5627 5623 5616 5612 5611 5609 5605 5602 5599 5596 5591 5587 5583 5579 5575 5571 5567 5562 5557 5553 5547 5543 5538 5532 5525 5520 5515 5511 5506 5499 5491
5605 5611 5589 5592 5601 5602 5612 5620 5641 5652 5653 5645 5645 5649 5642 5638 5633 5627 5618 5611 5605 5602 5600 5597 5594 5593 5589 5584 5580 5575 5571 5567 5562 5558 5553 5547 5540 5534 5528 5523 5517 5511 5506 5501 5496 5491 5484 5477 5466
5598 5591 5594 5601 5599 5607 5606 5628 5640 5644 5645 5646 5643 5642 5637 5633 5628 5620 5610 5602 5598 5595 5590 5587 5584 5582 5578 5572 5567 5563 5559 5554 5549 5544 5538 5531 5524 5517 5510 5505 5500 5495 5489 5483 5477 5469 5463 5454 5445
5607 5605 5604 5601 5593 5588 5596 5622 5638 5635 5636 5642 5640 5636 5632 5628 5620 5612 5604 5595 5591 5586 5581 5579 5575 5570 5566 5561 5556 5552 5547 5542 5536 5529 5521 5514 5508 5501 5495 5489 5483 5476 5468 5460 5454 5448 5440 5430 5420